Satellite-Ground Cal/Val Region Overpasses Predictions

Prediction of Satellite NPP Overpassing Cal/Val Region: PacNW

Region Location: (Latitude: 10.00, Longitude: 139.50) to (Latitude: 22.70, Longitude: 165.60).

Table of predicted overpasses for the next 14.0 days since TLE Epoch: 3/7/2021
Interval Starting Time Starting Location Ending Time Ending Location
1 03/07/2021 14:39:01 ( 22.68, 165.05) 03/07/2021 14:42:36 ( 10.06, 162.05)
2 03/07/2021 16:20:31 ( 22.67, 139.68) 03/07/2021 16:20:43 ( 21.97, 139.50)
3 03/08/2021 03:29:36 ( 10.03, 147.20) 03/08/2021 03:33:11 ( 22.65, 144.20)
4 03/08/2021 16:01:29 ( 22.69, 144.44) 03/08/2021 16:05:05 ( 10.01, 141.42)
5 03/09/2021 03:10:34 ( 10.00, 151.96) 03/09/2021 03:14:10 ( 22.68, 148.95)
6 03/09/2021 15:42:27 ( 22.66, 149.19) 03/09/2021 15:46:02 ( 10.04, 146.19)
7 03/10/2021 02:51:32 ( 10.04, 156.72) 03/10/2021 02:55:07 ( 22.66, 153.71)
8 03/10/2021 15:23:25 ( 22.68, 153.95) 03/10/2021 15:27:00 ( 10.06, 150.95)
9 03/11/2021 02:32:30 ( 10.02, 161.48) 03/11/2021 02:36:06 ( 22.70, 158.46)
10 03/11/2021 15:04:24 ( 22.64, 158.70) 03/11/2021 15:07:59 ( 10.02, 155.70)
11 03/12/2021 02:14:15 ( 12.82, 165.59) 03/12/2021 02:17:03 ( 22.68, 163.23)
12 03/12/2021 03:54:57 ( 10.00, 140.87) 03/12/2021 03:56:37 ( 15.88, 139.50)
13 03/12/2021 14:45:21 ( 22.66, 163.47) 03/12/2021 14:48:56 ( 10.04, 160.46)
14 03/13/2021 03:35:56 ( 10.04, 145.62) 03/13/2021 03:39:31 ( 22.66, 142.61)
15 03/13/2021 14:29:27 ( 11.65, 165.59) 03/13/2021 14:29:55 ( 10.00, 165.21)
16 03/13/2021 16:07:49 ( 22.68, 142.85) 03/13/2021 16:11:24 ( 10.06, 139.85)
17 03/14/2021 03:16:53 ( 10.02, 150.38) 03/14/2021 03:20:29 ( 22.70, 147.36)
18 03/14/2021 15:48:46 ( 22.70, 147.62) 03/14/2021 15:52:22 ( 10.02, 144.60)
19 03/15/2021 02:57:52 ( 10.06, 155.13) 03/15/2021 03:01:27 ( 22.68, 152.13)
20 03/15/2021 15:29:45 ( 22.66, 152.37) 03/15/2021 15:33:20 ( 10.04, 149.37)
21 03/16/2021 02:38:49 ( 10.04, 159.89) 03/16/2021 02:42:24 ( 22.66, 156.89)
22 03/16/2021 15:10:42 ( 22.68, 157.13) 03/16/2021 15:14:18 ( 10.00, 154.12)
23 03/17/2021 02:19:47 ( 10.02, 164.66) 03/17/2021 02:23:23 ( 22.70, 161.64)
24 03/17/2021 14:51:40 ( 22.70, 161.90) 03/17/2021 14:55:16 ( 10.02, 158.88)
25 03/18/2021 03:42:14 ( 10.01, 144.04) 03/18/2021 03:45:50 ( 22.69, 141.03)
26 03/18/2021 14:33:51 ( 18.38, 165.59) 03/18/2021 14:36:13 ( 10.04, 163.64)
27 03/18/2021 16:14:08 ( 22.65, 141.27) 03/18/2021 16:16:12 ( 15.38, 139.50)
28 03/19/2021 03:23:13 ( 10.05, 148.79) 03/19/2021 03:26:48 ( 22.67, 145.79)
29 03/19/2021 15:55:06 ( 22.67, 146.03) 03/19/2021 15:58:41 ( 10.05, 143.03)
30 03/20/2021 03:04:11 ( 10.03, 153.56) 03/20/2021 03:07:46 ( 22.65, 150.55)
31 03/20/2021 15:36:03 ( 22.69, 150.79) 03/20/2021 15:39:39 ( 10.01, 147.78)
